Edwards AFB North Base, CA

4:26 AM PST on November 15, 2019 (GMT -0800)
Edwards AFB North Base

Weather History for K9L2 - September, 2019

Change the Weather History Date:

Friday, September 6, 2019

  Actual Average (KEDW) Record (KEDW)
Temperature  
Mean Temperature 82 °F -  
Max Temperature 100 °F 92 °F 102 °F (2006)
Min Temperature 66 °F 59 °F 44 °F (2000)
Cooling Degree Days 18    
Growing Degree Days 32 (Base 50)    
Moisture  
Dew Point 52 °F    
Average Humidity 35    
Maximum Humidity 83    
Minimum Humidity 18    
Precipitation  
Precipitation 0.00 in - - ()
Sea Level Pressure  
Sea Level Pressure 29.95 in    
Wind  
Wind Speed 6 mph ()    
Max Wind Speed 23 mph    
Max Gust Speed 29 mph    
Visibility 8.8 miles    
Events      
Averages and records for this station are not official NWS values.
T = Trace of Precipitation, MM = Missing Value Source: Averaged Metar Reports

Daily Weather History Graph

Daily Weather History Graph

Search for Another Location

Airport or City:

Astronomy

Sep. 06, 2019 Rise Set
Actual Time 6:27 AM PDT 7:11 PM PDT
Civil Twilight 6:02 AM PDT 7:36 PM PDT
Nautical Twilight 5:31 AM PDT 8:07 PM PDT
Astronomical Twilight 5:00 AM PDT 8:38 PM PDT
Moon 2:23 PM PDT (9/6) No Moon Set
Length of Visible Light 13h 34m
Length of Day
12h 43m
First Quarter, 57% of the Moon is Illuminated
Sep 6
First Quarter
Sep 13
Full
Sep 21
Last Quarter
Sep 28
New
Oct 5
First Quarter

Hourly Weather History & Observations

Time (PDT) Temp. Dew Point Humidity Pressure Visibility Wind Dir Wind Speed Gust Speed Precip Events Conditions
12:58 AM 74.8 °F 52.7 °F 46% 29.98 in 10.0 mi SSW 3.5 mph - N/A   Clear
1:58 AM 72.3 °F 55.0 °F 54% 29.98 in 10.0 mi Calm Calm - N/A   Clear
2:58 AM 69.4 °F 58.8 °F 69% 29.97 in 10.0 mi Calm Calm - N/A   Clear
3:58 AM 68.5 °F 60.1 °F 74% 29.98 in 10.0 mi Calm Calm - N/A   Clear
4:58 AM 67.1 °F 60.8 °F 80% 29.99 in 9.0 mi Calm Calm - N/A   Clear
5:58 AM 66.9 °F 61.5 °F 83% 30.01 in 10.0 mi Calm Calm - N/A   Clear
6:58 AM 67.5 °F 52.2 °F 58% 30.01 in 9.0 mi South 3.5 mph - N/A   Clear
7:58 AM 70.7 °F 55.9 °F 59% 30.03 in 8.0 mi Calm Calm - N/A   Clear
8:58 AM 76.6 °F 51.4 °F 41% 30.03 in 10.0 mi Calm Calm - N/A   Clear
9:58 AM 84.6 °F 52.0 °F 32% 30.02 in 8.0 mi Calm Calm - N/A   Clear
10:58 AM 88.9 °F 52.7 °F 29% 30.01 in 8.0 mi Calm Calm - N/A   Clear
11:58 AM 92.3 °F 51.6 °F 25% 29.99 in 9.0 mi SSE 3.5 mph - N/A   Clear
12:58 PM 96.4 °F 52.2 °F 22% 29.97 in 9.0 mi WSW 8.1 mph - N/A   Partly Cloudy
1:58 PM 98.1 °F 49.1 °F 19% 29.94 in 8.0 mi South 9.2 mph - N/A   Clear
2:58 PM 96.8 °F 47.8 °F 19% 29.92 in 9.0 mi South 12.7 mph 17.3 mph N/A   Clear
3:05 PM 98.6 °F 48.2 °F 18% 29.92 in 8.0 mi SSW 15.0 mph - N/A   Partly Cloudy
3:13 PM 98.6 °F 48.2 °F 18% 29.92 in 8.0 mi SSE 15.0 mph 21.9 mph N/A   Partly Cloudy
3:58 PM 99.0 °F 49.3 °F 19% 29.91 in 8.0 mi SW 23.0 mph 28.8 mph N/A   Clear
4:22 PM 98.6 °F 50.0 °F 19% 29.91 in 8.0 mi SSW 13.8 mph 26.5 mph N/A   Clear
4:27 PM 96.8 °F 50.0 °F 20% 29.91 in 8.0 mi SW 16.1 mph 26.5 mph N/A   Clear
4:40 PM 96.8 °F 50.0 °F 20% 29.91 in 7.0 mi WSW 15.0 mph 21.9 mph N/A   Clear
4:46 PM 96.8 °F 50.0 °F 20% 29.91 in 7.0 mi SSW 13.8 mph 21.9 mph N/A   Clear
4:58 PM 97.3 °F 49.8 °F 20% 29.91 in 7.0 mi SSW 18.4 mph 28.8 mph N/A   Clear
5:05 PM 96.8 °F 50.0 °F 20% 29.91 in 7.0 mi South 20.7 mph - N/A   Clear
5:09 PM 96.8 °F 50.0 °F 20% 29.91 in 7.0 mi WSW 15.0 mph - N/A   Clear
5:58 PM 95.2 °F 49.1 °F 21% 29.92 in 9.0 mi WSW 18.4 mph 24.2 mph N/A   Clear
6:58 PM 90.1 °F 49.6 °F 25% 29.93 in 10.0 mi WSW 19.6 mph 24.2 mph N/A   Clear
7:58 PM 86.4 °F 50.4 °F 29% 29.94 in 10.0 mi WSW 17.3 mph - N/A   Clear
8:58 PM 84.4 °F 50.4 °F 31% 29.96 in 10.0 mi SW 13.8 mph - N/A   Clear
9:58 PM 82.9 °F 50.9 °F 33% 29.95 in 10.0 mi WSW 11.5 mph - N/A   Clear
10:58 PM 80.6 °F 50.7 °F 35% 29.95 in 10.0 mi South 5.8 mph - N/A   Clear
11:58 PM 78.8 °F 50.7 °F 37% 29.94 in 10.0 mi SSW 3.5 mph - N/A   Clear